Zurück zum Katalog

STARLINK-2076

AktivKommunikationVLEO
NORAD 47362·PAYLOAD·🇺🇸 United States

Gestartet Jan 20, 2021 von Cape Canaveral Space Force Station

Loading…

Nächste Überflüge (nächste 24 Stunden)

TLE

AktuellSource: CelesTrak SupGP

Epoche: Sep 14, 2026, 21:12 UTC

1 47362C 21005P   26257.88381944  .00069762  00000+0  15069-2 0  2576
2 47362  53.1545 255.8768 0001362  33.1805  31.5976 15.43902142    13

Verfolge STARLINK-2076 in Echtzeit mit AllMySat

Download on the App Store